Zurück zum Katalog

STARLINK-33777

AktivKommunikationVLEO
NORAD 63843·PAYLOAD·🇺🇸 United States

Gestartet May 7, 2025 von Cape Canaveral Space Force Station

Loading…

Nächste Überflüge (nächste 24 Stunden)

TLE

AktuellSource: CelesTrak SupGP

Epoche: Sep 15, 2026, 03:30 UTC

1 63843C 25093H   26258.14631944 -.00016647  00000+0 -60289-3 0  2589
2 63843  43.0016  87.6884 0001472 267.9630 326.0959 15.27591150    19

Verfolge STARLINK-33777 in Echtzeit mit AllMySat

Download on the App Store